Weather in Bolshoy Atmas

Russia / Omsk Oblast     54°03′56″N   74°56′12″E
temp.,
°C
wind,
m/s
gust,
m/s
humid.,
%
clouds,
%
prec.,
mm/h
press.,
hPa
HPBL,
m
3 march, wed
wed300:00−18sw239784 0.1 101623
03:00−19ssw339877 0.0 101522
06:00−18ssw349876 0.0 101649
09:00−17ssw4896100 0.1 1016195
12:00−14ssw699181 0.1 1016363
15:00−12ssw7119088 0.0 1016503
18:00−12ssw7139194 0.0 1015484
21:00−9ssw71491100 0.1 1015583
4 march, thu
thu400:00−6ssw71393100 0.1 1014619
03:00−4ssw71494100 0.2 1012679
06:00−3ssw71494100 0.6 1012732
09:00−3ssw91590100 0.3 1011702
12:00−3ssw91490100 0.3 1010673
15:00−2ssw91593100 0.5 1009897
18:00−2ssw91595100 1.1 1008933
21:00−2ssw91785100 0.2 1006799
5 march, fri
fri500:00−2ssw81686100 0.2 1006678
03:00−2sw71295100 0.3 1005597
06:00−8wsw7158891 0.6 1008440
09:00−11wsw7139072 0.0 1011345
12:00−8sw9158475 0.0 1013509
15:00−5sw111692100 0.7 10131060
18:00−5sw81585100 0.8 1014786
21:00−6sw7158691 0.0 1015561
6 march, sat
sat600:00−3sw8159395 0.2 1015741
03:00−3sw91689100 0.1 1014820
06:00−4sw91685100 0.2 1013787
09:00−4sw91785100 0.0 1011871
12:00−2sw111786100 0.1 1010927
15:00−1sw111687100 0.2 10091066
18:00−1sw91784100 0.2 1009899
21:00−2wsw61487100 0.0 1011546
7 march, sun
sun700:00−7wsw51090100 0.0 1013244
03:00−10wsw4491100 0.0 101474
06:00−10ssw2389100 0.0 101428
09:00−7sse51095100 0.1 1012315
12:00−2ssw91492100 0.4 1009660
15:000sw81491100 0.1 1007924
18:000sw91597100 0.3 1007886
21:00+1sw81498100 0.3 1007778